Station Historical Data
Daily Summary for July 9, 2017 Units:  English    Metric   Both
« Previous Day
Next Day »
Daily Weekly Monthly Yearly Custom
  High: Low: Average:
Temperature: 95.3 °F 73.4 °F 81.2 °F
Dew Point: 58.4 °F 43.3 °F 50 °F
Humidity: 54 % 20 % 35 %
Wind Speed: 14.0 mph 0.0 mph 3.4 mph
Wind Gust: 18.0 mph - -
Wind:- - SSE
Pressure: 29.90 in 29.82 in -
Precipitation: 0.00 in    
Historical Graphs
 
 
Tabular Data for July 9, 2017
Time Temperature Dew Point Pressure Wind Wind Speed Wind Gust Humidity Rainfall Rate (Hourly) solar
00:02 76.6 °F 47.7 °F 29.88 in East 4.0 mph 14.0 mph 36 % 0.00 in 0.00 W/m2
00:07 76.5 °F 47.6 °F 29.88 in Calm   9.0 mph 36 % 0.00 in 0.00 W/m2
00:12 76.5 °F 48.3 °F 29.87 in ESE 2.0 mph 9.0 mph 37 % 0.00 in 0.00 W/m2
00:17 76.4 °F 48.2 °F 29.87 in Calm   8.0 mph 37 % 0.00 in 0.00 W/m2
00:22 76.3 °F 47.4 °F 29.87 in East 5.0 mph 8.0 mph 36 % 0.00 in 0.00 W/m2
00:27 76.2 °F 47.3 °F 29.87 in Calm   9.0 mph 36 % 0.00 in 0.00 W/m2
00:32 76.2 °F 47.3 °F 29.87 in East 7.0 mph 9.0 mph 36 % 0.00 in 0.00 W/m2
00:37 76.1 °F 47.2 °F 29.87 in ESE 7.0 mph 12.0 mph 36 % 0.00 in 0.00 W/m2
00:42 76.0 °F 47.2 °F 29.87 in East 2.0 mph 11.0 mph 36 % 0.00 in 0.00 W/m2
00:47 76.0 °F 47.2 °F 29.87 in East 4.0 mph 11.0 mph 36 % 0.00 in 0.00 W/m2
00:52 76.0 °F 47.2 °F 29.87 in Calm   7.0 mph 36 % 0.00 in 0.00 W/m2
00:57 76.0 °F 47.9 °F 29.87 in East 8.0 mph 9.0 mph 37 % 0.00 in 0.00 W/m2
01:03 75.9 °F 47.8 °F 29.87 in East 5.0 mph 9.0 mph 37 % 0.00 in 0.00 W/m2
01:08 75.9 °F 47.8 °F 29.87 in East 4.0 mph 11.0 mph 37 % 0.00 in 0.00 W/m2
01:13 75.9 °F 47.8 °F 29.86 in East 6.0 mph 11.0 mph 37 % 0.00 in 0.00 W/m2
01:18 75.8 °F 47.7 °F 29.86 in ESE 1.0 mph 9.0 mph 37 % 0.00 in 0.00 W/m2
01:23 75.8 °F 47.7 °F 29.86 in ESE 6.0 mph 12.0 mph 37 % 0.00 in 0.00 W/m2
01:28 75.7 °F 47.6 °F 29.86 in East 4.0 mph 13.0 mph 37 % 0.00 in 0.00 W/m2
01:33 75.6 °F 48.2 °F 29.86 in ENE 3.0 mph 14.0 mph 38 % 0.00 in 0.00 W/m2
01:38 75.6 °F 48.2 °F 29.87 in East 2.0 mph 11.0 mph 38 % 0.00 in 0.00 W/m2
01:43 75.5 °F 48.1 °F 29.86 in East 5.0 mph 9.0 mph 38 % 0.00 in 0.00 W/m2
01:48 75.5 °F 48.1 °F 29.86 in East 1.0 mph 9.0 mph 38 % 0.00 in 0.00 W/m2
01:53 75.5 °F 48.1 °F 29.86 in ESE 6.0 mph 13.0 mph 38 % 0.00 in 0.00 W/m2
01:58 75.5 °F 48.1 °F 29.86 in East 5.0 mph 12.0 mph 38 % 0.00 in 0.00 W/m2
02:03 75.4 °F 48.0 °F 29.86 in East 5.0 mph 12.0 mph 38 % 0.00 in 0.00 W/m2
02:08 75.4 °F 48.0 °F 29.86 in East 8.0 mph 12.0 mph 38 % 0.00 in 0.00 W/m2
02:13 75.3 °F 48.0 °F 29.86 in ESE 8.0 mph 11.0 mph 38 % 0.00 in 0.00 W/m2
02:18 75.3 °F 48.0 °F 29.86 in East 7.0 mph 13.0 mph 38 % 0.00 in 0.00 W/m2
02:23 75.3 °F 48.7 °F 29.86 in ESE 7.0 mph 12.0 mph 39 % 0.00 in 0.00 W/m2
02:28 75.3 °F 48.0 °F 29.86 in ESE 6.0 mph 13.0 mph 38 % 0.00 in 0.00 W/m2
02:33 75.3 °F 48.7 °F 29.86 in East 1.0 mph 13.0 mph 39 % 0.00 in 0.00 W/m2
02:38 75.2 °F 48.6 °F 29.86 in East 1.0 mph 11.0 mph 39 % 0.00 in 0.00 W/m2
02:43 75.2 °F 48.6 °F 29.86 in East 7.0 mph 12.0 mph 39 % 0.00 in 0.00 W/m2
02:48 75.1 °F 48.5 °F 29.86 in ESE 2.0 mph 12.0 mph 39 % 0.00 in 0.00 W/m2
02:53 75.1 °F 48.5 °F 29.86 in ESE 4.0 mph 12.0 mph 39 % 0.00 in 0.00 W/m2
02:58 75.0 °F 48.4 °F 29.86 in East 12.0 mph 12.0 mph 39 % 0.00 in 0.00 W/m2
03:03 75.0 °F 48.4 °F 29.86 in East 1.0 mph 13.0 mph 39 % 0.00 in 0.00 W/m2
03:08 74.9 °F 48.3 °F 29.86 in ESE 4.0 mph 13.0 mph 39 % 0.00 in 0.00 W/m2
03:13 74.9 °F 48.3 °F 29.86 in East 6.0 mph 9.0 mph 39 % 0.00 in 0.00 W/m2
03:18 74.9 °F 48.3 °F 29.86 in East 7.0 mph 12.0 mph 39 % 0.00 in 0.00 W/m2
03:23 74.8 °F 48.2 °F 29.86 in East 6.0 mph 9.0 mph 39 % 0.00 in 0.00 W/m2
03:28 74.8 °F 48.2 °F 29.86 in Calm   14.0 mph 39 % 0.00 in 0.00 W/m2
03:33 74.7 °F 48.1 °F 29.86 in East 9.0 mph 14.0 mph 39 % 0.00 in 0.00 W/m2
03:38 74.7 °F 48.1 °F 29.86 in East 13.0 mph 13.0 mph 39 % 0.00 in 0.00 W/m2
03:43 74.7 °F 48.1 °F 29.85 in ESE 5.0 mph 15.0 mph 39 % 0.00 in 0.00 W/m2
03:48 74.7 °F 48.1 °F 29.85 in ESE 8.0 mph 13.0 mph 39 % 0.00 in 0.00 W/m2
03:53 74.7 °F 48.1 °F 29.85 in East 8.0 mph 13.0 mph 39 % 0.00 in 0.00 W/m2
03:58 74.7 °F 48.8 °F 29.85 in East 11.0 mph 13.0 mph 40 % 0.00 in 0.00 W/m2
04:03 74.6 °F 48.0 °F 29.85 in ESE 9.0 mph 14.0 mph 39 % 0.00 in 0.00 W/m2
04:08 74.6 °F 48.0 °F 29.85 in East 5.0 mph 13.0 mph 39 % 0.00 in 0.00 W/m2
04:13 74.5 °F 48.6 °F 29.85 in East 13.0 mph 14.0 mph 40 % 0.00 in 0.00 W/m2
04:19 74.5 °F 48.6 °F 29.85 in ESE 14.0 mph 15.0 mph 40 % 0.00 in 0.00 W/m2
04:24 74.4 °F 48.5 °F 29.85 in ESE 13.0 mph 14.0 mph 40 % 0.00 in 0.00 W/m2
04:29 74.4 °F 48.5 °F 29.85 in ESE 12.0 mph 16.0 mph 40 % 0.00 in 0.00 W/m2
04:34 74.4 °F 48.5 °F 29.84 in ESE 8.0 mph 14.0 mph 40 % 0.00 in 0.00 W/m2
04:39 74.3 °F 48.4 °F 29.84 in ESE 9.0 mph 15.0 mph 40 % 0.00 in 0.00 W/m2
04:44 74.3 °F 48.4 °F 29.84 in ESE 5.0 mph 15.0 mph 40 % 0.00 in 0.00 W/m2
04:49 74.3 °F 48.4 °F 29.84 in ESE 13.0 mph 16.0 mph 40 % 0.00 in 0.00 W/m2
04:54 74.3 °F 48.4 °F 29.85 in ESE 6.0 mph 16.0 mph 40 % 0.00 in 0.00 W/m2
04:59 74.4 °F 48.5 °F 29.85 in East 4.0 mph 18.0 mph 40 % 0.00 in 0.00 W/m2
05:04 74.4 °F 49.2 °F 29.85 in SE 7.0 mph 16.0 mph 41 % 0.00 in 0.00 W/m2
05:09 74.5 °F 49.3 °F 29.85 in ESE 9.0 mph 18.0 mph 41 % 0.00 in 0.00 W/m2
05:14 74.5 °F 49.3 °F 29.85 in East 6.0 mph 18.0 mph 41 % 0.00 in 0.00 W/m2
05:19 74.5 °F 49.3 °F 29.85 in East 14.0 mph 16.0 mph 41 % 0.00 in 0.00 W/m2
05:24 74.5 °F 49.3 °F 29.85 in ESE 6.0 mph 11.0 mph 41 % 0.00 in 0.00 W/m2
05:29 74.5 °F 49.3 °F 29.85 in ESE 12.0 mph 12.0 mph 41 % 0.00 in 0.00 W/m2
05:34 74.4 °F 49.2 °F 29.85 in ESE 2.0 mph 13.0 mph 41 % 0.00 in 0.00 W/m2
05:39 74.4 °F 49.8 °F 29.86 in ESE 4.0 mph 8.0 mph 42 % 0.00 in 0.00 W/m2
05:44 74.4 °F 49.8 °F 29.86 in East 9.0 mph 13.0 mph 42 % 0.00 in 0.00 W/m2
05:49 74.4 °F 49.8 °F 29.85 in East 5.0 mph 11.0 mph 42 % 0.00 in 5.00 W/m2
05:54 74.3 °F 49.8 °F 29.86 in ESE 5.0 mph 14.0 mph 42 % 0.00 in 7.00 W/m2
05:59 74.3 °F 49.8 °F 29.86 in East 6.0 mph 11.0 mph 42 % 0.00 in 11.00 W/m2
06:04 74.2 °F 49.7 °F 29.86 in East 6.0 mph 13.0 mph 42 % 0.00 in 14.00 W/m2
06:09 74.2 °F 49.7 °F 29.85 in Calm   12.0 mph 42 % 0.00 in 19.00 W/m2
06:14 74.1 °F 50.2 °F 29.85 in SE 7.0 mph 15.0 mph 43 % 0.00 in 23.00 W/m2
06:24 73.9 °F 50.0 °F 29.86 in East 11.0 mph 14.0 mph 43 % 0.00 in 37.00 W/m2
06:29 73.9 °F 50.0 °F 29.86 in Calm   13.0 mph 43 % 0.00 in 44.00 W/m2
06:34 73.8 °F 50.5 °F 29.86 in ESE 2.0 mph 15.0 mph 44 % 0.00 in 54.00 W/m2
06:39 73.8 °F 50.5 °F 29.86 in East 2.0 mph 15.0 mph 44 % 0.00 in 65.00 W/m2
06:44 73.7 °F 50.5 °F 29.86 in ESE 8.0 mph 12.0 mph 44 % 0.00 in 77.00 W/m2
06:49 73.7 °F 51.1 °F 29.86 in ESE 5.0 mph 13.0 mph 45 % 0.00 in 90.00 W/m2
06:54 73.6 °F 51.0 °F 29.86 in Calm   14.0 mph 45 % 0.00 in 105.00 W/m2
06:59 73.6 °F 51.6 °F 29.86 in Calm   12.0 mph 46 % 0.00 in 123.00 W/m2
07:04 73.5 °F 51.5 °F 29.86 in Calm   13.0 mph 46 % 0.00 in 135.00 W/m2
07:09 73.5 °F 52.1 °F 29.87 in East 6.0 mph 15.0 mph 47 % 0.00 in 153.00 W/m2
07:14 73.5 °F 52.6 °F 29.87 in East 5.0 mph 18.0 mph 48 % 0.00 in 174.00 W/m2
07:19 73.4 °F 52.5 °F 29.87 in East 8.0 mph 15.0 mph 48 % 0.00 in 190.00 W/m2
07:24 73.4 °F 52.5 °F 29.87 in Calm   12.0 mph 48 % 0.00 in 211.00 W/m2
07:29 73.5 °F 52.6 °F 29.87 in ESE 12.0 mph 16.0 mph 48 % 0.00 in 232.00 W/m2
07:34 73.5 °F 53.2 °F 29.87 in Calm   14.0 mph 49 % 0.00 in 251.00 W/m2
07:39 73.6 °F 53.3 °F 29.87 in ESE 7.0 mph 14.0 mph 49 % 0.00 in 272.00 W/m2
07:44 73.7 °F 53.9 °F 29.87 in East 9.0 mph 16.0 mph 50 % 0.00 in 290.00 W/m2
07:49 73.8 °F 54.0 °F 29.87 in Calm   13.0 mph 50 % 0.00 in 306.00 W/m2
07:54 73.9 °F 54.1 °F 29.87 in Calm   12.0 mph 50 % 0.00 in 323.00 W/m2
07:59 73.9 °F 54.7 °F 29.87 in East 12.0 mph 13.0 mph 51 % 0.00 in 339.00 W/m2
08:04 74.0 °F 54.7 °F 29.87 in ESE 4.0 mph 11.0 mph 51 % 0.00 in 355.00 W/m2
08:10 74.2 °F 55.5 °F 29.87 in ESE 5.0 mph 13.0 mph 52 % 0.00 in 369.00 W/m2
08:15 74.3 °F 55.6 °F 29.88 in East 6.0 mph 12.0 mph 52 % 0.00 in 387.00 W/m2
08:20 74.4 °F 55.7 °F 29.88 in East 8.0 mph 12.0 mph 52 % 0.00 in 397.00 W/m2
08:25 74.5 °F 55.7 °F 29.88 in ESE 6.0 mph 12.0 mph 52 % 0.00 in 417.00 W/m2
08:30 74.7 °F 55.9 °F 29.88 in Calm   12.0 mph 52 % 0.00 in 436.00 W/m2
08:35 74.8 °F 56.0 °F 29.88 in ESE 5.0 mph 12.0 mph 52 % 0.00 in 448.00 W/m2
08:40 75.0 °F 56.7 °F 29.88 in ESE 8.0 mph 12.0 mph 53 % 0.00 in 464.00 W/m2
08:45 75.2 °F 56.9 °F 29.88 in SE 8.0 mph 9.0 mph 53 % 0.00 in 478.00 W/m2
08:50 75.4 °F 57.6 °F 29.88 in SE 1.0 mph 9.0 mph 54 % 0.00 in 494.00 W/m2
08:55 75.6 °F 57.8 °F 29.88 in ESE 6.0 mph 8.0 mph 54 % 0.00 in 510.00 W/m2
09:00 75.8 °F 58.0 °F 29.88 in Calm   8.0 mph 54 % 0.00 in 522.00 W/m2
09:05 76.1 °F 58.3 °F 29.88 in ESE 6.0 mph 8.0 mph 54 % 0.00 in 545.00 W/m2
09:10 76.4 °F 58.0 °F 29.88 in Calm   8.0 mph 53 % 0.00 in 559.00 W/m2
09:15 76.6 °F 58.2 °F 29.88 in ESE 4.0 mph 6.0 mph 53 % 0.00 in 570.00 W/m2
09:20 76.9 °F 57.4 °F 29.88 in ESE 2.0 mph 7.0 mph 51 % 0.00 in 584.00 W/m2
09:25 77.2 °F 57.7 °F 29.88 in ESE 2.0 mph 8.0 mph 51 % 0.00 in 598.00 W/m2
09:30 77.5 °F 58.0 °F 29.88 in Calm   6.0 mph 51 % 0.00 in 613.00 W/m2
09:35 77.8 °F 57.7 °F 29.88 in Calm   5.0 mph 50 % 0.00 in 626.00 W/m2
09:36 77.9 °F 57.8 °F 29.88 in Calm   5.0 mph 50 % 0.00 in 629.00 W/m2
09:41 78.2 °F 56.3 °F 29.88 in Calm   7.0 mph 47 % 0.00 in 643.00 W/m2
09:46 78.5 °F 56.6 °F 29.88 in SE 4.0 mph 7.0 mph 47 % 0.00 in 656.00 W/m2
09:51 78.9 °F 58.1 °F 29.88 in Calm   7.0 mph 49 % 0.00 in 668.00 W/m2
09:56 79.3 °F 57.3 °F 29.88 in SSE 7.0 mph 8.0 mph 47 % 0.00 in 680.00 W/m2
10:01 79.5 °F 55.7 °F 29.88 in SSE 2.0 mph 9.0 mph 44 % 0.00 in 694.00 W/m2
10:06 79.8 °F 56.0 °F 29.88 in SSE 5.0 mph 8.0 mph 44 % 0.00 in 708.00 W/m2
10:11 80.3 °F 56.4 °F 29.88 in SSE 4.0 mph 7.0 mph 44 % 0.00 in 719.00 W/m2
10:16 80.7 °F 56.8 °F 29.88 in Calm   10.0 mph 44 % 0.00 in 729.00 W/m2
10:21 81.1 °F 58.4 °F 29.88 in SSE 7.0 mph 8.0 mph 46 % 0.00 in 740.00 W/m2
10:26 81.6 °F 55.6 °F 29.88 in SSE 2.0 mph 9.0 mph 41 % 0.00 in 751.00 W/m2
10:31 82.0 °F 54.6 °F 29.88 in Calm   7.0 mph 39 % 0.00 in 763.00 W/m2
10:36 82.5 °F 53.6 °F 29.88 in South 4.0 mph 8.0 mph 37 % 0.00 in 773.00 W/m2
10:41 82.9 °F 56.1 °F 29.88 in Calm   4.0 mph 40 % 0.00 in 784.00 W/m2
10:46 83.3 °F 56.5 °F 29.89 in SW 5.0 mph 8.0 mph 40 % 0.00 in 795.00 W/m2
10:51 83.8 °F 56.2 °F 29.88 in SSW 4.0 mph 7.0 mph 39 % 0.00 in 802.00 W/m2
10:56 84.2 °F 54.4 °F 29.88 in Calm   4.0 mph 36 % 0.00 in 812.00 W/m2
11:01 84.5 °F 55.4 °F 29.89 in Calm   6.0 mph 37 % 0.00 in 823.00 W/m2
11:06 84.8 °F 55.7 °F 29.89 in Calm   2.0 mph 37 % 0.00 in 830.00 W/m2
11:11 85.2 °F 56.0 °F 29.89 in SW 3.0 mph 6.0 mph 37 % 0.00 in 838.00 W/m2
11:16 85.4 °F 50.5 °F 29.89 in Calm   6.0 mph 30 % 0.00 in 849.00 W/m2
11:21 85.6 °F 53.2 °F 29.89 in SW 6.0 mph 7.0 mph 33 % 0.00 in 858.00 W/m2
11:26 85.9 °F 51.8 °F 29.89 in SW 4.0 mph 8.0 mph 31 % 0.00 in 865.00 W/m2
11:31 86.2 °F 48.3 °F 29.89 in Calm   9.0 mph 27 % 0.00 in 870.00 W/m2
11:36 86.5 °F 51.4 °F 29.89 in WSW 3.0 mph 9.0 mph 30 % 0.00 in 877.00 W/m2
11:41 86.6 °F 50.6 °F 29.90 in SSW 4.0 mph 10.0 mph 29 % 0.00 in 884.00 W/m2
11:46 86.9 °F 51.8 °F 29.89 in Calm   7.0 mph 30 % 0.00 in 889.00 W/m2
11:51 87.1 °F 51.9 °F 29.90 in Calm   7.0 mph 30 % 0.00 in 896.00 W/m2
11:56 87.4 °F 51.3 °F 29.90 in South 5.0 mph 7.0 mph 29 % 0.00 in 902.00 W/m2
12:01 87.6 °F 51.5 °F 29.90 in Calm   6.0 mph 29 % 0.00 in 907.00 W/m2
12:06 87.9 °F 48.8 °F 29.90 in SW 3.0 mph 9.0 mph 26 % 0.00 in 912.00 W/m2
12:11 88.2 °F 50.0 °F 29.89 in Calm   3.0 mph 27 % 0.00 in 914.00 W/m2
12:16 88.4 °F 49.2 °F 29.89 in SW 2.0 mph 6.0 mph 26 % 0.00 in 919.00 W/m2
12:21 88.7 °F 47.3 °F 29.89 in SW 3.0 mph 8.0 mph 24 % 0.00 in 925.00 W/m2
12:26 88.9 °F 49.6 °F 29.89 in Calm   8.0 mph 26 % 0.00 in 926.00 W/m2
12:31 89.1 °F 48.7 °F 29.89 in Calm     25 % 0.00 in 930.00 W/m2
12:36 89.7 °F 47.0 °F 29.89 in South 2.0 mph 3.0 mph 23 % 0.00 in 932.00 W/m2
12:41 90.4 °F 48.7 °F 29.89 in Calm   2.0 mph 24 % 0.00 in 932.00 W/m2
12:46 91.0 °F 49.2 °F 29.89 in SSW 6.0 mph 6.0 mph 24 % 0.00 in 935.00 W/m2
12:51 91.6 °F 47.4 °F 29.89 in Calm     22 % 0.00 in 935.00 W/m2
12:56 92.1 °F 47.8 °F 29.89 in SW 1.0 mph 1.0 mph 22 % 0.00 in 935.00 W/m2
13:01 92.2 °F 49.1 °F 29.88 in SW 3.0 mph 4.0 mph 23 % 0.00 in 937.00 W/m2
13:06 92.5 °F 49.3 °F 29.88 in SW 6.0 mph 7.0 mph 23 % 0.00 in 935.00 W/m2
13:11 92.6 °F 49.4 °F 29.88 in SW 3.0 mph 4.0 mph 23 % 0.00 in 935.00 W/m2
13:16 92.6 °F 49.4 °F 29.88 in South 7.0 mph 7.0 mph 23 % 0.00 in 935.00 W/m2
13:21 92.9 °F 47.2 °F 29.88 in SW 2.0 mph 3.0 mph 21 % 0.00 in 933.00 W/m2
13:26 93.5 °F 47.8 °F 29.88 in SSE 2.0 mph 4.0 mph 21 % 0.00 in 932.00 W/m2
13:31 93.6 °F 51.4 °F 29.88 in SSW 2.0 mph 7.0 mph 24 % 0.00 in 928.00 W/m2
13:36 93.8 °F 49.2 °F 29.88 in Calm     22 % 0.00 in 928.00 W/m2
13:41 93.9 °F 46.8 °F 29.88 in SSW 5.0 mph 9.0 mph 20 % 0.00 in 923.00 W/m2
13:46 94.3 °F 47.1 °F 29.88 in SSW 4.0 mph 7.0 mph 20 % 0.00 in 921.00 W/m2
13:51 94.8 °F 51.3 °F 29.88 in SSW 2.0 mph 10.0 mph 23 % 0.00 in 919.00 W/m2
14:01 95.3 °F 47.9 °F 29.87 in SSW 1.0 mph 1.0 mph 20 % 0.00 in 909.00 W/m2
14:06 95.2 °F 49.2 °F 29.88 in Calm   7.0 mph 21 % 0.00 in 905.00 W/m2
14:11 94.9 °F 51.3 °F 29.87 in Calm     23 % 0.00 in 902.00 W/m2
14:16 94.3 °F 49.7 °F 29.87 in Calm     22 % 0.00 in 896.00 W/m2
14:21 93.9 °F 49.3 °F 29.87 in Calm   5.0 mph 22 % 0.00 in 895.00 W/m2
14:26 93.7 °F 47.9 °F 29.87 in SW 5.0 mph 5.0 mph 21 % 0.00 in 888.00 W/m2
14:31 93.8 °F 49.2 °F 29.87 in SW 1.0 mph 1.0 mph 22 % 0.00 in 882.00 W/m2
14:36 93.6 °F 50.3 °F 29.87 in SW 8.0 mph 8.0 mph 23 % 0.00 in 875.00 W/m2
14:41 93.7 °F 47.9 °F 29.87 in Calm   5.0 mph 21 % 0.00 in 870.00 W/m2
14:46 93.5 °F 50.2 °F 29.86 in Calm   4.0 mph 23 % 0.00 in 860.00 W/m2
14:51 93.0 °F 49.8 °F 29.86 in WSW 1.0 mph 5.0 mph 23 % 0.00 in 851.00 W/m2
14:56 92.9 °F 49.7 °F 29.86 in WSW 2.0 mph 7.0 mph 23 % 0.00 in 846.00 W/m2
15:01 92.8 °F 49.6 °F 29.86 in SW 5.0 mph 8.0 mph 23 % 0.00 in 838.00 W/m2
15:07 92.8 °F 50.7 °F 29.86 in WSW 6.0 mph 11.0 mph 24 % 0.00 in 830.00 W/m2
15:12 92.9 °F 47.2 °F 29.85 in WSW 7.0 mph 10.0 mph 21 % 0.00 in 816.00 W/m2
15:17 93.0 °F 49.8 °F 29.85 in Calm   4.0 mph 23 % 0.00 in 810.00 W/m2
15:22 92.9 °F 47.2 °F 29.85 in Calm   8.0 mph 21 % 0.00 in 798.00 W/m2
15:27 92.8 °F 48.4 °F 29.85 in WSW 5.0 mph 5.0 mph 22 % 0.00 in 788.00 W/m2
15:32 92.8 °F 48.4 °F 29.85 in WSW 3.0 mph 7.0 mph 22 % 0.00 in 782.00 W/m2
15:37 92.6 °F 47.0 °F 29.85 in West 6.0 mph 9.0 mph 21 % 0.00 in 770.00 W/m2
15:42 92.4 °F 46.8 °F 29.85 in WSW 8.0 mph 10.0 mph 21 % 0.00 in 759.00 W/m2
15:47 92.4 °F 50.4 °F 29.85 in SW 2.0 mph 9.0 mph 24 % 0.00 in 747.00 W/m2
15:52 92.4 °F 48.1 °F 29.85 in West 3.0 mph 6.0 mph 22 % 0.00 in 738.00 W/m2
15:57 92.1 °F 46.6 °F 29.85 in Calm   1.0 mph 21 % 0.00 in 724.00 W/m2
16:02 91.9 °F 50.0 °F 29.85 in SW 4.0 mph 13.0 mph 24 % 0.00 in 712.00 W/m2
16:07 91.9 °F 46.4 °F 29.85 in SW 5.0 mph 7.0 mph 21 % 0.00 in 707.00 W/m2
16:12 91.9 °F 45.1 °F 29.85 in WSW 5.0 mph 7.0 mph 20 % 0.00 in 691.00 W/m2
16:17 91.7 °F 46.3 °F 29.84 in Calm   7.0 mph 21 % 0.00 in 680.00 W/m2
16:22 91.6 °F 48.6 °F 29.84 in West 7.0 mph 7.0 mph 23 % 0.00 in 668.00 W/m2
16:27 91.5 °F 47.3 °F 29.84 in WSW 4.0 mph 4.0 mph 22 % 0.00 in 657.00 W/m2
16:32 91.3 °F 45.9 °F 29.84 in Calm   7.0 mph 21 % 0.00 in 643.00 W/m2
16:37 91.3 °F 45.9 °F 29.84 in WSW 4.0 mph 6.0 mph 21 % 0.00 in 628.00 W/m2
16:42 91.3 °F 45.9 °F 29.84 in WSW 7.0 mph 9.0 mph 21 % 0.00 in 615.00 W/m2
16:47 91.2 °F 45.8 °F 29.84 in Calm   5.0 mph 21 % 0.00 in 603.00 W/m2
16:52 91.1 °F 48.2 °F 29.84 in SW 3.0 mph 8.0 mph 23 % 0.00 in 585.00 W/m2
16:57 91.0 °F 44.4 °F 29.84 in Calm   7.0 mph 20 % 0.00 in 573.00 W/m2
17:02 91.1 °F 45.8 °F 29.84 in WSW 2.0 mph 6.0 mph 21 % 0.00 in 563.00 W/m2
17:07 91.1 °F 47.0 °F 29.84 in WSW 4.0 mph 7.0 mph 22 % 0.00 in 547.00 W/m2
17:12 91.1 °F 49.3 °F 29.84 in WSW 4.0 mph 5.0 mph 24 % 0.00 in 531.00 W/m2
17:17 91.0 °F 48.1 °F 29.84 in Calm   8.0 mph 23 % 0.00 in 515.00 W/m2
17:22 90.9 °F 48.0 °F 29.83 in Calm   7.0 mph 23 % 0.00 in 497.00 W/m2
17:27 90.7 °F 47.8 °F 29.83 in Calm   3.0 mph 23 % 0.00 in 483.00 W/m2
17:32 90.5 °F 49.9 °F 29.83 in Calm     25 % 0.00 in 468.00 W/m2
17:37 90.2 °F 48.6 °F 29.83 in Calm     24 % 0.00 in 450.00 W/m2
17:42 90.0 °F 48.4 °F 29.83 in Calm     24 % 0.00 in 436.00 W/m2
17:47 89.9 °F 50.5 °F 29.83 in Calm     26 % 0.00 in 420.00 W/m2
17:52 89.7 °F 49.2 °F 29.83 in West 7.0 mph 8.0 mph 25 % 0.00 in 404.00 W/m2
17:57 89.5 °F 50.1 °F 29.82 in Calm   5.0 mph 26 % 0.00 in 388.00 W/m2
18:02 89.3 °F 48.9 °F 29.82 in WSW 3.0 mph 6.0 mph 25 % 0.00 in 373.00 W/m2
18:07 89.2 °F 49.9 °F 29.82 in Calm   5.0 mph 26 % 0.00 in 359.00 W/m2
18:13 89.0 °F 49.7 °F 29.82 in WSW 5.0 mph 6.0 mph 26 % 0.00 in 339.00 W/m2
18:18 88.9 °F 49.6 °F 29.82 in Calm   5.0 mph 26 % 0.00 in 323.00 W/m2
18:23 88.7 °F 50.5 °F 29.82 in WSW 3.0 mph 4.0 mph 27 % 0.00 in 308.00 W/m2
18:28 88.5 °F 51.3 °F 29.82 in Calm   2.0 mph 28 % 0.00 in 290.00 W/m2
18:33 88.3 °F 52.0 °F 29.82 in Calm   4.0 mph 29 % 0.00 in 278.00 W/m2
18:38 88.0 °F 51.8 °F 29.82 in Calm   1.0 mph 29 % 0.00 in 262.00 W/m2
18:43 87.8 °F 50.7 °F 29.82 in Calm     28 % 0.00 in 244.00 W/m2
18:48 87.4 °F 52.2 °F 29.82 in Calm   6.0 mph 30 % 0.00 in 229.00 W/m2
18:53 87.0 °F 52.7 °F 29.82 in SW 3.0 mph 4.0 mph 31 % 0.00 in 214.00 W/m2
18:58 86.6 °F 52.4 °F 29.82 in Calm   4.0 mph 31 % 0.00 in 199.00 W/m2
19:03 86.0 °F 53.6 °F 29.82 in Calm   1.0 mph 33 % 0.00 in 185.00 W/m2
19:08 85.5 °F 53.1 °F 29.82 in Calm     33 % 0.00 in 169.00 W/m2
19:13 85.0 °F 53.5 °F 29.82 in Calm     34 % 0.00 in 151.00 W/m2
19:18 84.6 °F 53.2 °F 29.82 in Calm   1.0 mph 34 % 0.00 in 132.00 W/m2
19:23 84.1 °F 53.5 °F 29.82 in Calm   1.0 mph 35 % 0.00 in 118.00 W/m2
19:28 83.7 °F 53.9 °F 29.82 in Calm   1.0 mph 36 % 0.00 in 98.00 W/m2
19:33 83.2 °F 53.5 °F 29.82 in Calm     36 % 0.00 in 83.00 W/m2
19:38 82.7 °F 53.1 °F 29.82 in Calm     36 % 0.00 in 67.00 W/m2
19:43 82.3 °F 52.7 °F 29.82 in Calm   1.0 mph 36 % 0.00 in 54.00 W/m2
19:48 81.9 °F 52.3 °F 29.82 in Calm   1.0 mph 36 % 0.00 in 42.00 W/m2
19:53 81.6 °F 52.1 °F 29.82 in Calm   1.0 mph 36 % 0.00 in 33.00 W/m2
19:58 81.2 °F 52.5 °F 29.82 in Calm   4.0 mph 37 % 0.00 in 25.00 W/m2
20:03 80.9 °F 51.5 °F 29.82 in Calm   5.0 mph 36 % 0.00 in 19.00 W/m2
20:08 80.6 °F 51.2 °F 29.83 in Calm   5.0 mph 36 % 0.00 in 16.00 W/m2
20:13 80.3 °F 50.9 °F 29.83 in Calm   3.0 mph 36 % 0.00 in 12.00 W/m2
20:18 80.0 °F 50.7 °F 29.83 in Calm   5.0 mph 36 % 0.00 in 11.00 W/m2
20:23 79.6 °F 49.6 °F 29.83 in Calm   1.0 mph 35 % 0.00 in 9.00 W/m2
20:28 79.3 °F 49.3 °F 29.83 in Calm   1.0 mph 35 % 0.00 in 7.00 W/m2
20:33 78.9 °F 47.4 °F 29.83 in Calm   6.0 mph 33 % 0.00 in 5.00 W/m2
20:38 78.5 °F 47.0 °F 29.83 in Calm   4.0 mph 33 % 0.00 in 0.00 W/m2
20:44 78.2 °F 46.8 °F 29.84 in SW 2.0 mph 5.0 mph 33 % 0.00 in 0.00 W/m2
20:49 78.0 °F 46.6 °F 29.84 in Calm   1.0 mph 33 % 0.00 in 0.00 W/m2
20:54 77.8 °F 45.6 °F 29.83 in SSW 4.0 mph 5.0 mph 32 % 0.00 in 0.00 W/m2
20:59 77.7 °F 45.5 °F 29.84 in Calm   4.0 mph 32 % 0.00 in 0.00 W/m2
21:04 77.6 °F 44.6 °F 29.84 in Calm   3.0 mph 31 % 0.00 in 0.00 W/m2
21:09 77.5 °F 44.5 °F 29.84 in SSW 3.0 mph 4.0 mph 31 % 0.00 in 0.00 W/m2
21:14 77.4 °F 43.6 °F 29.84 in SSW 3.0 mph 5.0 mph 30 % 0.00 in 0.00 W/m2
21:19 77.4 °F 43.6 °F 29.85 in Calm   4.0 mph 30 % 0.00 in 0.00 W/m2
21:24 77.2 °F 44.2 °F 29.84 in South 4.0 mph 5.0 mph 31 % 0.00 in 0.00 W/m2
21:29 77.1 °F 43.3 °F 29.84 in South 2.0 mph 6.0 mph 30 % 0.00 in 0.00 W/m2
21:30 77.1 °F 43.3 °F 29.84 in South 2.0 mph 6.0 mph 30 % 0.00 in 0.00 W/m2
21:35 77.1 °F 44.2 °F 29.84 in Calm   7.0 mph 31 % 0.00 in 0.00 W/m2
21:40 77.0 °F 44.1 °F 29.85 in SSE 4.0 mph 7.0 mph 31 % 0.00 in 0.00 W/m2
21:45 76.9 °F 44.8 °F 29.85 in Calm   6.0 mph 32 % 0.00 in 0.00 W/m2
21:50 76.9 °F 45.6 °F 29.85 in SSE 4.0 mph 8.0 mph 33 % 0.00 in 0.00 W/m2
21:55 76.8 °F 46.3 °F 29.85 in SE 1.0 mph 8.0 mph 34 % 0.00 in 0.00 W/m2
22:00 76.7 °F 47.0 °F 29.85 in SE 5.0 mph 7.0 mph 35 % 0.00 in 0.00 W/m2
22:05 76.7 °F 47.0 °F 29.85 in SE 7.0 mph 8.0 mph 35 % 0.00 in 0.00 W/m2
22:10 76.6 °F 47.7 °F 29.85 in SE 4.0 mph 9.0 mph 36 % 0.00 in 0.00 W/m2
22:15 76.6 °F 47.7 °F 29.85 in SE 6.0 mph 11.0 mph 36 % 0.00 in 0.00 W/m2
22:20 76.6 °F 48.4 °F 29.85 in SE 8.0 mph 9.0 mph 37 % 0.00 in 0.00 W/m2
22:25 76.5 °F 48.3 °F 29.85 in SE 4.0 mph 9.0 mph 37 % 0.00 in 0.00 W/m2
22:30 76.4 °F 48.2 °F 29.85 in ESE 5.0 mph 12.0 mph 37 % 0.00 in 0.00 W/m2
22:35 76.4 °F 48.2 °F 29.85 in SE 8.0 mph 12.0 mph 37 % 0.00 in 0.00 W/m2
22:40 76.3 °F 48.8 °F 29.85 in SE 2.0 mph 9.0 mph 38 % 0.00 in 0.00 W/m2
22:45 76.3 °F 48.8 °F 29.84 in SE 4.0 mph 9.0 mph 38 % 0.00 in 0.00 W/m2
22:50 76.2 °F 48.8 °F 29.84 in Calm   8.0 mph 38 % 0.00 in 0.00 W/m2
22:55 76.1 °F 49.4 °F 29.84 in ESE 5.0 mph 12.0 mph 39 % 0.00 in 0.00 W/m2
23:00 76.0 °F 49.3 °F 29.84 in ESE 4.0 mph 9.0 mph 39 % 0.00 in 0.00 W/m2
23:05 75.9 °F 49.2 °F 29.84 in ESE 6.0 mph 9.0 mph 39 % 0.00 in 0.00 W/m2
23:10 75.8 °F 49.1 °F 29.84 in ESE 1.0 mph 11.0 mph 39 % 0.00 in 0.00 W/m2
23:15 75.7 °F 49.7 °F 29.84 in Calm   12.0 mph 40 % 0.00 in 0.00 W/m2
23:20 75.6 °F 49.6 °F 29.84 in ESE 5.0 mph 8.0 mph 40 % 0.00 in 0.00 W/m2
23:25 75.5 °F 49.5 °F 29.84 in ESE 4.0 mph 11.0 mph 40 % 0.00 in 0.00 W/m2
23:30 75.4 °F 49.4 °F 29.84 in ESE 1.0 mph 9.0 mph 40 % 0.00 in 0.00 W/m2
23:35 75.3 °F 49.3 °F 29.84 in ESE 1.0 mph 13.0 mph 40 % 0.00 in 0.00 W/m2
23:40 75.2 °F 49.2 °F 29.84 in ESE 5.0 mph 12.0 mph 40 % 0.00 in 0.00 W/m2
23:45 75.1 °F 49.2 °F 29.84 in ESE 9.0 mph 9.0 mph 40 % 0.00 in 0.00 W/m2
23:50 75.0 °F 49.1 °F 29.84 in Calm   14.0 mph 40 % 0.00 in 0.00 W/m2
23:55 74.9 °F 49.0 °F 29.84 in ESE 5.0 mph 13.0 mph 40 % 0.00 in 0.00 W/m2
Juneau County Weather
Compliments of Weather Underground - 4.5 mb
 WU-history PHP script courtesy of   Juneau County Weather.
powered by Cumulus v1.9.3 (1059)
Ambient Weather VWS v14.00
Top Contact Website Map Copyright © 2007 - 2018 Foresthillweather.com Never base important decisions on this or any weather information obtained from the Internet